Location: Ferchesar
(52.6477°N, 12.4298°E)
Time: 17:04:38
(UTC+01:00)

Transit 4A - Pass Details

Date: 13 December 2021
Orbit: 864 x 980 km, 66.8° (Epoch: 16 January)

Event Time Altitude Azimuth Distance (km) Brightness Sun altitude
Rises 20:47:26 0° 280° (W) 3,529 11.7 -42.6°
Reaches altitude 10° 20:50:27 10° 295° (WNW) 2,609 10.9 -43.0°
Enters shadow 20:52:48 19° 315° (NW) 2,069 10.1 -43.3°
